SCOUT A DEB, 2644

Orbit data source: Space-Track

SCOUT A DEB, 2644 is space debris in LEO originally from a launch on Thu, 19 May 1966 UTC launched from the Air Force Western Test Range (AFWTR). Debris objects in space refer to the collection of defunct objects orbiting the Earth. Examples of debris include non-operational satellites, rocket bodies, and fragments generated from explosions, collisions, or faulty payload assembly.

Loading next visibility...
Identifier
2644, 1966-041D
Orbit
LEO
Country
Flag of USUS
Related business
Manufacturer
Unknown
Mission
Spacecraft
Bus & Motor
Unknown
Mass
Unknown
Launch date (UTC)
1966-05-19 (60 years ago)
Launch vehicle
Unknown
Launch site
Air Force Western Test Range (AFWTR)
Object type
Payload
Rocket body
Debris
Shape & HBR
Unknown shape, 0.1 m
Radar Cross Section
Medium (>0.1 m² and <1 m²)

Expand to show TLE details & history
Last TLE update: 22 hours ago

TLE from 22 hours ago
0 SCOUT A DEB
1 02644U 66041D   26207.50282221  .00000292  00000-0  24417-3 0  9996
2 02644  90.1656  46.0079 0210261 248.0450 109.8252 13.77229591  3855
Epoch: 2026-07-26T12:04Z
TLE epoch observation values (Epoch: 2026-07-26T12:04:03.838Z)
Latitude
-0.0001°
Longitude
-79.20791°
Altitude
1,032.006 km
Speed
7.308 km/s
True Right ascension
03h 04m 01s
True Declination
0° 00' 00"
Sunlit
Object was in daylight at epoch
Visualization orbit readout
Latitude
Unknown
Longitude
Unknown
Altitude
Unknown
Speed
Unknown
Apparent Right ascension
Unknown
Apparent Declination
Unknown
Sunlit
N/A
Visualization observer readout
Local Sidereal Time
23:13:26
Azimuth
Unknown
Elevation
Unknown
Doppler factor
Unknown
Orbital elements
Apogee altitude
1,125.256 km
Perigee altitude
816.22 km
Semi-major axis
7,348.875 km
Eccentricity
0.02103
Inclination
90.1656°
RAAN
46.0079°
Arg. of periapsis
248.045°
True anomaly
112.0712°
Mean anomaly
109.8252°
Eccentric anomaly
110.95027°
Mean motion
3.44518 °/min
Orbital period
104.49 mins
BSTAR
0.00024417
Loading maneuver chart data...
Computing Atmospheric mass density...
Loading historical data...
Loading historical data...
Loading historical data...
Loading historical data...
Loading historical data...
Loading historical data...
Loading historical data...

Documentation

Showing up to 5 results
|